TimeMDT,TemperatureF,Dew PointF,Humidity,Sea Level PressureIn,VisibilityMPH,Wind Direction,Wind SpeedMPH,Gust SpeedMPH,PrecipitationIn,Events,Conditions,WindDirDegrees,DateUTC
12:53 AM,61.0,46.0,58,29.96,10.0,Calm,Calm,-,N/A,,Clear,0,2013-08-07 06:53:00
1:53 AM,57.9,46.9,67,29.98,10.0,SE,4.6,-,N/A,,Clear,140,2013-08-07 07:53:00
2:53 AM,57.9,46.9,67,29.98,10.0,Calm,Calm,-,N/A,,Clear,0,2013-08-07 08:53:00
3:53 AM,55.9,46.9,72,29.98,10.0,Calm,Calm,-,N/A,,Clear,0,2013-08-07 09:53:00
4:53 AM,55.9,46.9,72,29.98,10.0,Calm,Calm,-,N/A,,Clear,0,2013-08-07 10:53:00
5:53 AM,57.0,46.9,69,29.97,10.0,Calm,Calm,-,N/A,,Clear,0,2013-08-07 11:53:00
6:53 AM,57.0,46.9,69,29.99,10.0,SE,3.5,-,N/A,,Clear,130,2013-08-07 12:53:00
7:53 AM,57.0,48.9,74,30.00,10.0,Calm,Calm,-,N/A,,Clear,0,2013-08-07 13:53:00
8:53 AM,62.1,48.9,62,30.00,10.0,Calm,Calm,-,N/A,,Clear,0,2013-08-07 14:53:00
9:53 AM,66.0,48.0,52,29.99,10.0,Calm,Calm,-,N/A,,Clear,0,2013-08-07 15:53:00
10:53 AM,68.0,48.9,50,30.00,10.0,Calm,Calm,-,N/A,,Clear,0,2013-08-07 16:53:00
11:53 AM,72.0,46.0,40,29.98,10.0,Calm,Calm,-,N/A,,Unknown,0,2013-08-07 17:53:00
12:53 PM,75.9,46.0,35,29.96,10.0,North,3.5,-,N/A,,Clear,10,2013-08-07 18:53:00
1:53 PM,77.0,43.0,30,29.94,10.0,East,9.2,-,N/A,,Partly Cloudy,100,2013-08-07 19:53:00
2:53 PM,78.1,42.1,28,29.94,10.0,ENE,15.0,24.2,N/A,,Partly Cloudy,70,2013-08-07 20:53:00
3:53 PM,81.0,41.0,24,29.88,10.0,ENE,12.7,-,N/A,,Clear,60,2013-08-07 21:53:00
4:53 PM,80.1,39.0,23,29.88,10.0,Calm,Calm,-,N/A,,Clear,0,2013-08-07 22:53:00
5:53 PM,80.1,39.0,23,29.87,10.0,North,3.5,-,N/A,,Clear,360,2013-08-07 23:53:00
6:53 PM,80.1,39.9,24,29.85,10.0,NW,5.8,-,N/A,,Clear,310,2013-08-08 00:53:00
7:53 PM,73.9,39.9,29,29.88,10.0,East,21.9,27.6,N/A,,Clear,100,2013-08-08 01:53:00
8:02 PM,73.4,37.4,27,30.06,10.0,East,20.7,27.6,N/A,,Clear,90,2013-08-08 02:02:00
8:53 PM,72.0,41.0,33,29.89,10.0,ESE,4.6,-,N/A,,Clear,110,2013-08-08 02:53:00
9:53 PM,71.1,42.1,35,29.91,10.0,NW,4.6,-,N/A,,Clear,310,2013-08-08 03:53:00
10:53 PM,68.0,42.1,39,29.92,10.0,Calm,Calm,-,N/A,,Clear,0,2013-08-08 04:53:00
11:53 PM,66.9,43.0,42,29.92,10.0,Calm,Calm,-,N/A,,Clear,0,2013-08-08 05:53:00